Lapse_Rate
5.3 5.2 4.9 4.9 4.8 4.7 4.7 4.7 4.7 4.8 4.8 4.9 4.9 4.8 4.9 4.9 5.0 5.0 5.0 4.9 4.8 4.9 5.0 5.2 5.4 5.4 5.5 5.6 5.7 5.7 5.7 5.9 5.9 5.9 6.1 6.2 6.3 6.6 6.9 6.9 6.6 6.7 6.4
5.7 5.5 5.1 5.0 5.0 4.9 4.8 4.7 4.8 4.8 4.8 4.9 4.9 4.9 5.0 5.1 5.1 5.1 5.0 5.0 5.0 5.1 5.2 5.3 5.4 5.5 5.6 5.7 5.8 6.0 5.9 5.9 5.8 5.8 5.8 5.9 6.1 6.4 6.7 6.8 7.0 6.8 6.5
6.1 5.8 5.5 5.3 5.2 5.0 5.0 4.9 5.0 5.0 5.0 5.0 5.1 5.1 5.2 5.2 5.2 5.2 5.1 5.1 5.2 5.3 5.4 5.4 5.4 5.4 5.6 5.8 5.9 6.0 6.0 6.0 6.0 6.1 5.9 6.0 6.2 6.6 6.8 6.6 6.7 6.7 6.5
6.3 6.1 5.9 5.8 5.6 5.4 5.3 5.2 5.2 5.1 5.1 5.2 5.2 5.3 5.4 5.4 5.4 5.3 5.3 5.3 5.4 5.5 5.5 5.5 5.5 5.7 5.8 5.7 5.8 5.8 5.8 5.9 5.9 6.1 6.2 6.2 6.1 6.4 6.4 6.6 6.6 6.6 6.5
6.5 6.4 6.3 6.1 5.9 5.7 5.5 5.3 5.3 5.3 5.3 5.4 5.4 5.5 5.5 5.5 5.4 5.4 5.5 5.5 5.6 5.6 5.7 5.7 5.8 5.9 5.9 5.9 5.9 5.9 6.0 6.0 5.8 5.9 6.0 6.0 5.9 5.8 6.0 5.8 5.9 6.3 6.5
6.8 6.6 6.4 6.2 5.9 5.7 5.6 5.5 5.5 5.5 5.5 5.5 5.6 5.7 5.7 5.7 5.6 5.7 5.7 5.7 5.8 5.9 5.9 5.9 5.9 5.9 5.9 6.0 6.2 6.2 6.1 6.0 5.9 6.0 6.0 5.7 5.6 5.6 5.5 5.4 5.4 6.0 6.5
6.8 6.6 6.4 6.3 6.1 5.9 5.8 5.7 5.7 5.6 5.7 5.7 5.7 5.9 6.0 5.9 5.8 5.8 5.9 6.0 6.0 6.0 5.9 5.9 5.9 5.9 6.1 6.2 6.3 6.3 6.1 5.9 5.8 5.7 5.6 5.5 5.8 5.6 5.6 5.5 5.5 5.9 6.5
6.6 6.5 6.4 6.3 6.1 5.9 5.9 5.8 5.7 5.7 5.7 5.9 6.1 6.1 6.0 5.9 6.0 6.1 6.2 6.2 6.1 6.1 6.0 6.0 6.0 6.1 6.2 6.2 6.2 6.3 6.1 5.8 5.5 5.3 5.6 5.8 5.7 5.6 5.5 5.6 6.0 6.1 6.4
6.9 7.0 6.8 6.7 6.5 6.2 6.1 5.9 5.8 5.8 6.0 6.1 6.1 6.1 6.0 6.1 6.1 6.1 6.2 6.2 6.1 5.9 5.9 5.9 6.2 6.2 6.3 6.0 5.9 5.8 5.6 5.7 5.3 5.7 5.7 6.0 5.8 5.6 5.4 5.4 5.7 5.9 5.9
7.2 7.2 7.1 7.0 6.6 6.3 6.1 5.9 6.0 5.9 5.9 5.9 5.8 5.7 5.8 5.8 6.0 6.1 5.9 5.8 5.7 5.9 6.0 6.0 6.4 6.0 5.8 5.9 5.8 5.6 5.6 5.6 5.8 5.9 5.6 5.9 5.8 5.5 5.5 5.5 5.9 5.5 5.6
7.1 7.2 7.2 7.0 6.6 6.5 6.0 6.0 6.1 6.0 6.0 5.8 5.7 5.6 5.8 5.8 5.6 5.6 5.6 5.8 6.0 6.0 6.3 6.4 6.8 6.8 6.3 6.2 6.1 6.1 6.0 5.6 5.4 5.5 5.6 5.5 5.5 5.5 5.4 5.2 5.3 5.3 5.4
7.1 7.2 7.1 7.0 6.7 6.2 6.0 6.3 6.2 5.9 5.9 5.8 5.9 5.8 5.8 5.7 5.6 5.8 5.6 5.9 5.9 6.0 6.0 6.0 6.0 6.1 6.0 5.9 5.9 5.9 5.7 5.2 5.1 5.2 5.5 5.4 5.3 5.2 5.1 5.1 4.9 5.0 5.0
7.3 7.3 7.3 7.1 6.7 6.6 6.4 6.4 6.2 6.2 6.1 6.2 5.7 5.7 5.5 5.7 5.5 5.5 5.5 5.7 6.0 5.6 5.9 5.9 5.5 5.5 5.7 5.7 5.5 5.5 5.5 5.6 5.1 5.0 5.4 5.5 5.4 5.3 5.1 4.9 4.9 4.9 5.1
7.3 7.2 7.2 7.0 6.6 6.4 6.5 6.0 6.1 5.8 6.0 5.8 5.6 5.5 5.3 5.4 5.2 5.6 5.7 6.3 6.2 5.7 6.2 6.0 5.5 5.1 5.6 5.5 5.1 5.3 5.6 5.6 5.4 5.1 4.9 5.2 5.0 4.9 4.8 4.8 4.7 4.7 4.9
7.4 7.4 7.0 6.5 5.9 6.2 5.8 5.6 5.7 5.4 5.3 5.3 5.3 5.5 5.4 5.3 5.4 5.2 5.8 6.2 5.8 5.3 5.3 5.6 5.2 5.0 5.3 5.5 5.2 5.2 5.4 5.4 5.3 5.0 4.9 4.9 4.7 4.6 4.7 4.6 4.7 4.6 4.6
6.0 6.0 6.4 6.6 5.7 5.6 5.4 5.7 5.1 5.2 5.0 5.0 5.1 5.2 5.2 5.7 5.6 5.6 5.6 5.9 5.2 5.1 4.9 5.1 5.2 5.1 5.3 5.2 5.0 5.2 5.1 5.0 4.9 4.8 4.9 4.6 4.4 4.7 4.8 4.5 4.5 4.3 4.3
5.6 5.6 5.9 6.1 5.7 5.4 5.4 5.2 5.1 4.8 4.8 4.6 4.6 4.9 5.1 5.7 5.7 5.4 5.2 5.4 5.2 5.2 4.5 5.3 5.2 4.9 5.0 4.9 5.0 5.0 4.8 4.7 4.5 4.5 4.6 5.2 4.7 4.1 4.4 4.4 4.3 4.2 3.8
5.5 5.4 5.5 5.6 5.4 5.2 5.1 5.0 4.7 4.6 4.6 4.5 4.7 4.8 5.3 5.2 5.5 5.4 5.0 5.0 5.2 4.9 5.0 5.0 5.0 5.0 5.0 4.9 5.2 4.9 4.8 4.5 4.5 4.5 4.3 4.4 4.9 4.1 3.9 4.5 4.2 4.1 4.0
5.6 5.6 6.1 5.7 5.0 5.2 4.9 4.5 4.5 4.4 4.4 4.5 4.9 5.2 5.7 5.4 5.0 4.7 4.9 5.0 5.0 4.8 4.7 4.7 4.8 4.8 4.9 5.1 5.1 4.9 4.9 4.7 5.1 5.0 4.8 4.0 3.3 4.2 4.4 3.9 4.3 3.9 3.9
6.1 6.3 5.9 5.4 5.2 5.1 5.0 4.6 4.6 4.7 4.3 4.6 4.9 5.5 5.6 5.6 5.2 5.1 4.9 4.7 4.7 4.5 4.4 4.7 4.8 5.1 5.0 5.1 5.2 5.4 5.4 5.2 5.6 5.0 5.1 5.1 4.1 3.3 4.0 4.5 4.1 4.0 4.0
6.5 5.9 5.5 5.1 5.3 5.3 5.2 4.7 4.5 4.5 4.6 4.9 5.1 5.4 5.6 5.5 5.1 4.9 4.9 4.7 4.6 4.5 4.6 4.8 5.0 5.3 5.2 5.2 5.2 5.7 5.8 5.7 5.7 5.3 5.1 5.0 5.0 4.4 4.0 4.0 4.2 4.4 4.5
6.1 5.6 5.3 4.9 5.1 5.0 4.6 4.5 4.6 4.7 4.9 5.1 5.4 5.2 5.0 4.8 4.8 4.9 5.0 4.7 4.7 4.8 5.0 5.1 5.1 5.4 5.3 5.4 5.3 5.7 6.5 6.1 5.9 5.4 5.3 5.0 4.7 4.6 4.4 4.2 4.4 4.5 4.9
5.9 5.6 5.3 5.0 4.8 4.7 4.7 4.8 4.7 5.0 5.1 5.3 5.1 4.9 4.8 4.7 4.8 5.0 4.9 5.0 5.0 5.0 5.0 5.1 5.3 5.4 5.7 5.7 5.5 5.6 5.9 6.3 6.5 5.9 5.4 5.2 4.7 4.8 4.9 5.0 5.2 5.0 5.2
5.7 5.6 5.4 5.1 5.0 4.9 4.7 4.9 5.0 5.1 5.3 5.3 5.0 4.8 4.6 4.7 4.7 4.8 4.7 4.7 4.8 4.8 5.0 5.3 5.6 5.7 5.9 5.8 5.7 5.8 5.5 5.5 5.7 6.5 6.6 5.8 5.1 5.2 5.3 5.0 5.2 5.1 5.0
5.5 5.5 5.3 5.2 5.1 4.9 4.9 4.9 5.0 5.2 5.2 5.2 4.9 4.9 4.8 4.8 4.7 4.8 4.8 4.9 4.9 5.1 5.3 5.7 6.0 6.0 6.0 5.8 5.6 5.7 5.7 5.5 5.3 5.2 6.0 6.7 6.1 5.4 4.9 5.0 5.0 4.9 4.8
5.5 5.5 5.3 5.1 5.0 4.8 4.8 5.0 5.0 5.2 5.2 5.1 4.9 4.9 4.8 4.8 4.9 5.0 5.1 5.2 5.3 5.4 5.7 6.1 6.0 5.9 5.9 5.7 5.5 5.3 5.3 5.4 5.7 5.6 5.5 5.9 6.2 6.1 5.2 4.9 4.8 4.7 4.6
Wind_Speed
9 16 17 17 17 17 17 16 16 15 14 15 15 16 16 17 17 16 16 16 17 17 18 18 19 19 18 19 19 20 20 20 19 19 17 17 5 12 15 13 16 17 17
19 17 17 17 17 17 16 16 16 14 14 15 15 15 16 16 16 15 15 16 16 16 17 17 18 18 19 19 19 19 20 21 22 21 19 14 11 13 13 13 14 14 17
17 18 17 17 17 17 16 16 15 14 14 14 15 15 15 14 14 14 14 15 15 16 16 17 17 17 18 18 18 18 19 20 22 22 24 10 13 14 14 13 14 13 15
21 18 16 18 18 17 16 16 15 15 14 14 14 15 13 13 14 14 14 14 15 15 16 16 17 17 18 18 18 19 19 19 20 20 22 10 12 12 13 13 13 13 14
20 19 18 18 18 17 16 16 15 14 14 14 14 13 13 13 13 14 14 14 15 16 16 17 17 18 18 19 19 19 20 20 20 20 21 14 14 11 12 12 11 11 12
20 19 19 18 18 17 16 15 15 14 14 14 14 14 13 13 13 14 14 15 15 15 16 17 18 18 18 18 18 19 20 19 19 22 13 12 14 12 11 11 10 10 11
17 19 18 19 18 17 16 15 15 15 15 14 13 13 13 12 13 14 15 15 15 15 16 18 19 18 17 18 18 20 20 19 17 16 7 12 12 12 12 11 8 9 10
16 17 17 18 17 16 16 16 16 15 15 13 12 11 11 12 12 11 14 14 14 15 15 18 19 18 17 18 17 18 19 20 20 11 6 9 10 11 11 9 10 9 10
22 17 18 18 17 16 16 16 15 15 13 11 9 8 8 8 8 8 9 11 11 13 12 15 17 19 19 20 21 15 20 20 21 14 5 6 10 14 12 8 9 8 8
17 16 17 20 19 16 14 14 14 12 10 8 6 4 1 3 11 7 6 6 8 10 11 14 17 14 17 19 19 18 20 22 23 10 7 9 11 10 13 14 11 11 12
12 12 16 16 18 18 13 12 12 11 8 5 7 11 4 4 8 9 7 6 9 12 16 19 19 14 17 17 17 17 17 19 20 11 7 11 11 11 10 12 13 11 11
12 12 14 16 16 18 13 12 10 9 8 13 14 20 18 13 16 18 12 16 12 15 18 19 19 17 18 18 16 10 11 12 17 8 5 8 10 10 10 10 11 11 9
14 11 11 16 16 15 11 13 10 9 14 13 18 19 19 17 17 19 18 17 15 17 19 19 21 19 19 19 19 10 10 7 12 15 4 5 7 9 9 8 9 11 11
11 11 12 14 15 7 14 12 15 15 9 15 15 14 11 11 13 15 16 15 16 18 17 19 15 18 20 21 19 16 11 7 9 10 11 3 4 6 8 8 8 9 10
15 12 11 15 13 15 12 16 14 13 15 11 10 10 8 9 10 14 14 13 17 18 18 15 12 15 15 16 18 16 12 12 12 12 5 5 3 4 5 6 7 9 10
17 14 12 10 17 17 10 13 12 14 7 7 9 6 7 12 12 14 13 9 13 18 20 13 12 12 12 14 13 17 13 16 17 17 12 5 4 5 2 3 5 8 10
15 15 12 11 17 14 12 12 10 10 10 11 9 3 14 14 15 15 11 8 13 20 21 15 14 15 9 12 8 12 13 16 16 16 14 7 3 6 7 5 1 5 10
14 11 12 14 14 14 12 10 9 11 9 6 6 12 14 15 17 16 12 10 19 17 13 9 5 4 5 5 7 5 8 14 14 16 15 10 5 4 4 8 10 13 13
15 14 12 9 9 9 10 9 9 8 3 7 6 8 12 15 16 15 13 16 19 14 11 7 3 3 4 6 7 8 7 5 11 16 11 4 5 4 3 1 5 8 14
15 14 13 10 7 9 10 8 7 5 8 10 3 5 12 12 11 13 14 15 14 9 5 4 4 3 3 5 8 8 8 6 5 9 9 14 11 5 4 3 3 7 11
16 15 11 13 10 7 4 3 3 3 4 3 3 9 8 7 6 6 7 10 13 4 5 4 3 4 4 4 3 9 5 6 3 9 11 10 13 12 12 10 10 4 5
13 11 12 10 9 6 3 2 2 3 3 4 12 8 3 4 4 3 4 5 9 4 6 5 4 3 2 4 3 4 5 5 5 11 5 7 8 12 12 14 13 11 9
11 9 10 10 8 6 9 5 5 4 4 4 4 4 13 6 3 2 5 5 8 7 4 4 3 4 3 2 6 1 3 3 9 3 13 4 10 4 9 12 13 14 13
8 8 9 8 7 5 9 5 6 3 3 2 3 4 11 16 12 11 10 11 9 9 5 4 4 2 2 3 3 3 1 2 2 6 2 5 4 8 6 6 10 14 15
8 8 7 7 5 5 6 5 5 5 3 3 4 7 6 13 15 11 11 11 10 10 8 5 5 5 1 1 1 2 2 3 5 4 8 7 6 4 6 7 8 9 16
8 7 6 5 2 4 4 6 6 7 6 5 5 5 5 4 9 14 13 14 14 11 7 6 5 6 3 1 1 3 3 3 4 4 6 9 10 6 5 6 5 10 15
Wind_Direction
130 138 138 132 127 122 117 110 103 96 89 81 73 68 61 56 51 46 41 37 31 29 25 23 20 16 14 12 9 6 1 355 353 351 353 352 34 47 39 46 28 27 7
131 134 137 131 126 122 116 108 100 94 88 81 74 67 61 56 51 45 41 36 31 26 24 21 17 14 11 8 6 3 359 351 347 345 348 355 46 41 42 36 42 29 5
125 134 135 132 126 120 114 106 100 96 88 82 76 70 63 59 54 47 42 36 31 26 23 19 14 12 9 6 3 1 358 351 345 343 341 349 64 46 37 36 33 27 16
131 131 133 131 124 118 112 105 100 94 88 84 79 71 65 62 55 48 42 36 31 26 21 16 12 11 8 5 2 -0 357 351 343 341 350 11 73 45 36 31 28 25 20
126 127 132 127 122 115 111 104 99 95 90 86 78 72 65 60 54 47 41 34 28 22 18 14 11 9 6 3 1 358 356 350 343 351 341 45 50 38 31 23 22 25 21
115 117 124 123 118 114 108 105 101 97 91 84 76 69 63 58 54 48 38 30 24 19 15 11 9 6 2 1 0 359 354 352 349 358 11 47 42 29 22 30 17 24 16
110 114 120 119 115 111 106 103 96 89 83 76 72 68 62 58 54 46 36 25 19 12 13 12 8 4 3 2 355 356 355 352 348 1 3 46 37 29 23 20 8 25 13
112 113 116 116 111 105 101 95 90 86 81 75 72 68 63 58 51 51 34 26 19 17 13 9 8 7 4 355 350 348 353 350 336 4 33 38 40 24 24 17 31 23 11
116 109 103 106 109 104 100 98 95 92 89 87 89 80 63 58 51 35 25 20 9 10 4 359 354 356 355 359 360 352 351 2 360 15 75 28 27 29 27 22 24 11 8
117 114 112 110 107 104 108 107 106 104 101 91 78 71 52 345 8 345 336 353 340 343 340 346 339 349 359 0 358 353 359 352 351 22 11 32 26 19 30 24 25 21 32
130 133 140 135 132 128 130 130 127 123 117 86 38 37 64 29 359 355 318 327 319 321 335 1 355 5 1 354 347 351 355 347 349 10 18 32 25 23 8 9 10 18 20
146 155 156 148 149 150 158 159 157 148 133 78 52 35 21 35 25 15 5 3 355 23 14 6 355 6 1 344 333 336 336 339 340 356 10 29 19 20 19 1 337 339 355
160 161 154 157 154 162 153 171 176 136 109 88 61 43 29 19 16 10 359 355 13 19 19 1 349 360 353 339 332 318 318 329 333 329 319 18 15 7 10 354 341 331 330
150 120 124 109 100 82 90 99 90 81 83 83 68 55 33 20 19 3 352 352 41 15 6 348 345 350 349 341 332 324 316 312 306 311 333 334 357 351 357 3 340 331 329
120 114 104 91 81 70 73 81 78 59 72 81 58 54 36 37 29 9 353 358 25 9 357 337 348 353 352 340 334 332 324 333 325 292 266 255 284 325 344 16 358 344 329
112 109 103 98 90 80 70 73 76 79 70 51 50 28 30 49 36 10 350 12 19 5 347 336 8 358 347 338 333 327 328 340 331 314 270 217 303 254 262 336 3 352 338
103 107 99 89 91 82 58 82 67 54 37 19 3 338 41 47 41 21 351 357 7 0 341 11 10 356 342 336 327 321 340 333 321 313 295 225 260 232 216 253 158 298 327
106 95 94 89 83 86 78 75 66 53 40 25 44 68 52 47 36 20 357 355 1 360 356 1 356 337 336 332 326 318 329 322 321 318 316 247 216 180 199 296 300 321 333
98 94 85 80 85 89 85 75 53 47 349 340 32 69 68 49 36 14 9 3 7 353 349 347 341 6 341 338 333 331 327 321 323 316 297 244 210 236 196 226 319 320 316
86 82 67 57 50 55 69 57 37 352 334 307 239 111 77 56 37 22 16 0 358 350 335 344 351 343 337 329 341 338 313 309 349 1 351 356 349 32 74 82 309 295 306
69 74 66 63 48 46 22 355 5 329 313 327 147 82 87 83 60 57 30 4 349 341 321 336 338 344 329 330 347 329 310 289 50 7 0 8 11 0 13 10 6 5 331
76 74 70 67 53 42 36 10 286 271 294 323 84 57 96 130 94 89 64 9 345 332 334 337 351 327 304 357 10 327 331 333 348 341 359 348 356 354 5 358 356 344 333
74 70 70 64 52 32 11 348 337 347 358 19 6 357 357 -0 23 42 56 8 340 336 320 315 326 343 310 333 31 87 341 329 329 329 325 343 339 352 340 346 343 340 328
80 75 70 61 44 19 7 10 26 23 12 328 336 2 4 12 17 57 30 1 349 330 318 303 331 308 37 1 355 30 227 259 290 313 314 319 324 335 312 322 315 316 316
86 77 73 64 39 1 2 35 35 13 333 339 358 21 357 4 18 25 5 359 343 326 312 312 328 356 22 105 160 290 275 284 282 264 301 307 311 310 311 301 286 295 308
89 83 81 75 355 335 18 41 36 25 5 22 5 5 344 342 351 353 4 345 337 335 328 344 2 359 348 22 258 269 271 268 276 277 290 301 300 297 284 290 294 293 288